FENGYUN 1C DEB

Satellite information

Favourite Embed

Satellite Type and Status

DEBRISIN ORBIT

Key statistics

Satellite FENGYUN 1C DEB at a glance.

Uptime

9665

Days in orbit

Revolutions

≈ 14.0

Per day

Orbit

SSO

Sun Synchronous Orbit

Inclination

98.2

Latest

Satellite identification and parameters

Extended collection of information and parameters for FENGYUN 1C DEB.

Object identification

Identified? True

Debris? True

Object name: FENGYUN 1C DEB

International designator: 1999-025CBQ

Object number (NORAD): 31658

Object ID (CCSDS): 31658

Country: PEOPLES REPUBLIC OF CHINA (PRC)

Current information (Y/N): Y

RCS size: SMALL

Orbital parameters

Period: 102.989 minutes

Inclination: 98.1551 deg

SMA: 7278.16 km

Apoapsis: 1056.152 km

Periapsis: 743.899 km

RAAN: 152.0609 deg

Eccentricy: 0.02145136

Argument of periapsis: 100.8502 deg

Mean anomaly: 261.6885 deg

Mean motion: 13.98203309 rev/day

Mean motion (dot): 0.00004588 rev/day2

B* drag term: 0.0026655911 1/REarth

Two-line elements (TLE)

Creation date: Oct. 25, 2025, 3:11 a.m.

Reference frame: TEME

Reference center: EARTH

Epoch: Oct. 24, 2025, 1:48 p.m. UTC

TLE line 0: 0 FENGYUN 1C DEB

TLE line 1: 1 31658U 99025CBQ 25297.57550288 .00004588 00000-0 26656-2 0 9995

TLE line 2: 2 31658 98.1551 152.0609 0214514 100.8502 261.6885 13.98203309691291

Live tracking on map

Real-time ground track for satellite FENGYUN 1C DEB.

In-orbit conjunctions

A list of the most updated potential collisions computed for object FENGYUN 1C DEB.

Target Orbit TCA Probability of collision Miss distance Type
CZ-4C DEB SSO 2025-07-03 01:25:27 0.000104787 101.0 (m) DEBRIS
INTERCOSMOS 22 LEO 2025-05-27 16:12:56 0.000234345 213.0 (m) PAYLOAD
CZ-6A DEB LEO 2024-11-10 07:12:41 0.0002374239 520.0 (m) DEBRIS

Associated space launch

Chinese polar orbiting meteorological satellite

FENGYUN 1C DEB was lifted into orbit during the mission ‘Long March 4B | Feng Yun 1C’, on board a Long March 4B space rocket.

The launch took place on May 10, 1999, 1:33 a.m. from Launch Complex 7.

For more information about the launch, click the button.

Launch to space Long March 4B | Feng Yun 1C
Long March 4B | Feng Yun 1C

Agency: N/A

Status: Launch Successful

Launch date: May 10, 1999, 1:33 a.m. UTC

Rocket: Long March 4B

Launch pad: Launch Complex 7

Location: Taiyuan Satellite Launch Center, People's Republic of China

...

Latest news about this satellite

There are no fresh news available about this satellite. Check back as we update our databases every day.


Newsletter sign-up

Weekly statistics, charts and insights to help you stay on top of the space industry.